P4HSJ KPBI-KLAX

Flight info

Callsign P4HSJ
Flight time N/A
Altitude 38000
Route OLAKE3 JAYMC Y280 LEV BBURT VUH WEMAR LEJON FST ELP J50 SSO J4 WLVRN ESTWD HLYWD1
Aircraft A320/M-SDE3FGHIRWY/LB1

Departure

Time 2026-04-29 11:56
Airport Palm Beach International Airport (KPBI)

Arrival

Time N/A
Airport Los Angeles International Airport (KLAX)
Time Latitude Longitude Altitude Speed Heading
2026-04-29 11:15 26.67982 -80.10050 25 ft 0 kts 88°
2026-04-29 11:48 26.67982 -80.10033 25 ft 4 kts 88°
2026-04-29 11:48 26.67983 -80.09992 24 ft 7 kts 88°
2026-04-29 11:48 26.67985 -80.09924 24 ft 10 kts 88°
2026-04-29 11:48 26.67986 -80.09889 24 ft 0 kts 88°
2026-04-29 11:49 26.67986 -80.09883 24 ft 2 kts 88°
2026-04-29 11:49 26.67987 -80.09855 24 ft 5 kts 88°
2026-04-29 11:49 26.67985 -80.09800 24 ft 9 kts 93°
2026-04-29 11:50 26.67982 -80.09720 24 ft 12 kts 92°
2026-04-29 11:50 26.67979 -80.09615 24 ft 15 kts 92°
2026-04-29 11:50 26.67976 -80.09496 24 ft 13 kts 91°
2026-04-29 11:50 26.67989 -80.09386 25 ft 16 kts 53°
2026-04-29 11:51 26.68083 -80.09410 29 ft 17 kts 311°
2026-04-29 11:51 26.68156 -80.09491 26 ft 15 kts 315°
2026-04-29 11:51 26.68238 -80.09582 26 ft 18 kts 316°
2026-04-29 11:51 26.68326 -80.09679 27 ft 15 kts 315°
2026-04-29 11:52 26.68414 -80.09761 26 ft 16 kts 352°
2026-04-29 11:52 26.68494 -80.09812 26 ft 15 kts 314°
2026-04-29 11:52 26.68540 -80.09863 26 ft 13 kts 316°
2026-04-29 11:52 26.68606 -80.09936 26 ft 15 kts 315°
2026-04-29 11:53 26.68678 -80.10016 27 ft 16 kts 315°
2026-04-29 11:53 26.68798 -80.10148 28 ft 16 kts 315°
2026-04-29 11:53 26.68887 -80.10246 31 ft 20 kts 315°
2026-04-29 11:53 26.68976 -80.10346 32 ft 18 kts 315°
2026-04-29 11:54 26.69033 -80.10408 26 ft 15 kts 315°
2026-04-29 11:54 26.69122 -80.10457 26 ft 16 kts 31°
2026-04-29 11:54 26.69150 -80.10364 29 ft 14 kts 127°
2026-04-29 11:54 26.69122 -80.10333 27 ft 0 kts 135°
2026-04-29 11:55 26.69113 -80.10322 30 ft 18 kts 135°
2026-04-29 11:55 26.68816 -80.09994 30 ft 98 kts 135°
2026-04-29 11:55 26.68197 -80.09306 27 ft 154 kts 134°
2026-04-29 11:55 26.67386 -80.08393 465 ft 168 kts 133°
2026-04-29 11:56 26.66610 -80.07427 1251 ft 166 kts 126°
2026-04-29 11:56 26.66142 -80.06171 1698 ft 187 kts 98°
2026-04-29 11:56 26.66290 -80.04631 2091 ft 214 kts 75°
2026-04-29 11:56 26.66703 -80.02932 2621 ft 239 kts 76°
2026-04-29 11:57 26.67153 -80.01048 3267 ft 259 kts 76°
2026-04-29 11:57 26.67902 -79.99192 4183 ft 269 kts 50°
2026-04-29 11:57 26.69254 -79.98118 5071 ft 273 kts 19°
2026-04-29 11:57 26.71116 -79.97600 6169 ft 273 kts 11°
2026-04-29 11:58 26.72994 -79.97218 7171 ft 276 kts
2026-04-29 11:58 26.74898 -79.96907 8103 ft 279 kts
2026-04-29 11:58 26.76827 -79.97002 8973 ft 286 kts 346°
2026-04-29 11:58 26.78632 -79.97962 9839 ft 293 kts 324°
2026-04-29 11:59 26.80022 -79.99682 10373 ft 312 kts 301°
2026-04-29 11:59 26.80849 -80.02018 10790 ft 330 kts 290°
2026-04-29 11:59 26.81589 -80.04479 11502 ft 335 kts 290°
2026-04-29 11:59 26.82337 -80.06962 12314 ft 338 kts 291°
2026-04-29 12:00 26.83094 -80.09455 13142 ft 339 kts 291°
2026-04-29 12:00 26.83862 -80.11962 13962 ft 341 kts 292°
2026-04-29 12:00 26.84639 -80.14480 14669 ft 343 kts 292°
2026-04-29 12:00 26.85428 -80.17026 15369 ft 346 kts 292°
2026-04-29 12:01 26.86223 -80.19588 16049 ft 349 kts 292°
2026-04-29 12:01 26.87022 -80.22166 16728 ft 353 kts 292°
2026-04-29 12:01 26.87827 -80.24780 17414 ft 356 kts 292°
2026-04-29 12:01 26.88637 -80.27413 18109 ft 359 kts 292°
2026-04-29 12:02 26.89452 -80.30063 18730 ft 363 kts 292°
2026-04-29 12:02 26.90270 -80.32725 19340 ft 366 kts 291°
2026-04-29 12:02 26.91093 -80.35432 19945 ft 369 kts 290°
2026-04-29 12:02 26.91636 -80.38300 20553 ft 376 kts 279°
2026-04-29 12:03 26.91941 -80.41178 21154 ft 379 kts 279°
2026-04-29 12:03 26.92255 -80.44123 21746 ft 382 kts 279°
2026-04-29 12:03 26.92572 -80.47086 22319 ft 385 kts 279°
2026-04-29 12:03 26.92895 -80.50072 22881 ft 388 kts 279°
2026-04-29 12:04 26.93221 -80.53084 23451 ft 391 kts 279°
2026-04-29 12:04 26.93550 -80.56119 23945 ft 394 kts 279°
2026-04-29 12:04 26.93882 -80.59176 24403 ft 397 kts 279°
2026-04-29 12:04 26.94213 -80.62261 24859 ft 400 kts 278°
2026-04-29 12:05 26.94542 -80.65367 25298 ft 403 kts 278°
2026-04-29 12:05 26.94873 -80.68499 25746 ft 406 kts 279°
2026-04-29 12:05 26.95207 -80.71659 26194 ft 409 kts 279°
2026-04-29 12:05 26.95543 -80.74838 26642 ft 412 kts 279°
2026-04-29 12:06 26.95873 -80.78043 27080 ft 416 kts 278°
2026-04-29 12:06 26.96107 -80.81284 27517 ft 419 kts 276°
2026-04-29 12:06 26.96251 -80.84563 27943 ft 423 kts 274°
2026-04-29 12:06 26.96345 -80.87872 28376 ft 426 kts 274°
2026-04-29 12:07 26.96426 -80.91201 28800 ft 429 kts 274°
2026-04-29 12:07 26.96516 -80.94548 29241 ft 432 kts 274°
2026-04-29 12:07 26.96623 -80.97925 29652 ft 435 kts 274°
2026-04-29 12:07 26.96747 -81.01324 30083 ft 438 kts 274°
2026-04-29 12:08 26.96880 -81.04746 30462 ft 441 kts 274°
2026-04-29 12:08 26.97016 -81.08192 30854 ft 443 kts 274°
2026-04-29 12:08 26.97151 -81.11600 31254 ft 444 kts 274°
2026-04-29 12:08 26.97286 -81.15055 31647 ft 446 kts 274°
2026-04-29 12:09 26.97419 -81.18538 32090 ft 446 kts 274°
2026-04-29 12:09 26.97547 -81.21998 32665 ft 443 kts 274°
2026-04-29 12:09 26.97672 -81.25437 33254 ft 440 kts 274°
2026-04-29 12:09 26.97793 -81.28856 33846 ft 438 kts 274°
2026-04-29 12:10 26.97926 -81.32250 34384 ft 434 kts 276°
2026-04-29 12:10 26.98394 -81.35571 34865 ft 430 kts 286°
2026-04-29 12:10 26.99353 -81.38719 35333 ft 425 kts 296°
2026-04-29 12:10 27.00758 -81.41617 35803 ft 421 kts 304°
2026-04-29 12:11 27.02332 -81.44375 36278 ft 418 kts 303°
2026-04-29 12:11 27.03890 -81.47125 36761 ft 415 kts 303°
2026-04-29 12:11 27.05426 -81.49847 37254 ft 412 kts 303°
2026-04-29 12:11 27.06955 -81.52556 37738 ft 409 kts 304°
2026-04-29 12:12 27.08474 -81.55247 38036 ft 407 kts 304°
2026-04-29 12:12 27.09983 -81.57922 38097 ft 404 kts 304°
2026-04-29 12:12 27.12982 -81.63243 38100 ft 401 kts 304°
2026-04-29 12:13 27.15962 -81.68533 38105 ft 401 kts 304°
2026-04-29 12:13 27.18933 -81.73815 38108 ft 400 kts 304°
2026-04-29 12:14 27.21899 -81.79099 38112 ft 399 kts 304°
2026-04-29 12:14 27.24837 -81.84346 38118 ft 399 kts 304°
2026-04-29 12:15 27.27748 -81.89664 38125 ft 400 kts 299°
2026-04-29 12:15 27.29441 -81.95663 38133 ft 406 kts 285°
2026-04-29 12:16 27.30600 -82.01869 38133 ft 406 kts 286°
2026-04-29 12:16 27.31762 -82.08080 38135 ft 405 kts 286°
2026-04-29 12:17 27.32921 -82.14274 38137 ft 405 kts 286°
2026-04-29 12:17 27.34079 -82.20467 38134 ft 404 kts 286°
2026-04-29 12:18 27.35230 -82.26659 38131 ft 404 kts 286°
2026-04-29 12:18 27.36372 -82.32840 38129 ft 403 kts 286°
2026-04-29 12:19 27.37515 -82.39020 38124 ft 403 kts 286°
2026-04-29 12:19 27.38651 -82.45179 38128 ft 402 kts 286°
2026-04-29 12:20 27.39782 -82.51339 38125 ft 402 kts 286°
2026-04-29 12:20 27.40902 -82.57462 38124 ft 401 kts 286°
2026-04-29 12:21 27.42053 -82.63651 38120 ft 401 kts 287°
2026-04-29 12:21 27.43203 -82.69743 38120 ft 401 kts 287°
2026-04-29 12:22 27.44354 -82.75881 38120 ft 400 kts 287°
2026-04-29 12:22 27.45494 -82.82012 38115 ft 400 kts 287°
2026-04-29 12:23 27.46629 -82.88143 38119 ft 400 kts 287°
2026-04-29 12:23 27.47760 -82.94282 38120 ft 400 kts 287°
2026-04-29 12:24 27.48887 -83.00411 38118 ft 399 kts 287°
2026-04-29 12:24 27.50012 -83.06532 38111 ft 399 kts 287°
2026-04-29 12:25 27.51129 -83.12647 38115 ft 398 kts 287°
2026-04-29 12:26 27.52790 -83.21757 38114 ft 397 kts 287°
2026-04-29 12:26 27.53908 -83.27845 38119 ft 396 kts 287°
2026-04-29 12:27 27.55010 -83.33919 38119 ft 395 kts 287°
2026-04-29 12:27 27.56108 -83.39982 38118 ft 394 kts 287°
2026-04-29 12:28 27.57203 -83.46034 38119 ft 393 kts 287°
2026-04-29 12:28 27.58292 -83.52059 38118 ft 392 kts 288°
2026-04-29 12:29 27.59375 -83.58074 38111 ft 391 kts 288°
2026-04-29 12:29 27.60446 -83.64078 38124 ft 390 kts 288°
2026-04-29 12:30 27.61512 -83.70057 38122 ft 388 kts 288°
2026-04-29 12:30 27.62575 -83.76023 38122 ft 388 kts 288°
2026-04-29 12:31 27.63641 -83.81969 38118 ft 387 kts 288°
2026-04-29 12:31 27.64697 -83.87916 38121 ft 386 kts 288°
2026-04-29 12:32 27.65740 -83.93839 38116 ft 385 kts 288°
2026-04-29 12:32 27.66784 -83.99756 38118 ft 384 kts 288°
2026-04-29 12:33 27.67829 -84.05667 38117 ft 383 kts 288°
2026-04-29 12:33 27.68868 -84.11572 38117 ft 383 kts 288°
2026-04-29 12:34 27.69891 -84.17413 38112 ft 382 kts 288°
2026-04-29 12:34 27.70923 -84.23289 38113 ft 381 kts 288°
2026-04-29 12:35 27.71948 -84.29157 38113 ft 381 kts 288°
2026-04-29 12:35 27.72968 -84.35023 38111 ft 381 kts 288°
2026-04-29 12:36 27.73983 -84.40891 38110 ft 381 kts 288°
2026-04-29 12:36 27.74992 -84.46759 38114 ft 380 kts 288°
2026-04-29 12:37 27.76005 -84.52619 38111 ft 380 kts 288°
2026-04-29 12:37 27.77016 -84.58484 38114 ft 380 kts 288°
2026-04-29 12:38 27.78024 -84.64336 38113 ft 379 kts 288°
2026-04-29 12:38 27.79024 -84.70179 38106 ft 379 kts 288°
2026-04-29 12:39 27.80012 -84.75978 38112 ft 379 kts 287°
2026-04-29 12:39 27.81002 -84.81817 38108 ft 378 kts 287°
2026-04-29 12:40 27.81991 -84.87646 38105 ft 378 kts 288°
2026-04-29 12:40 27.82980 -84.93480 38111 ft 377 kts 288°
2026-04-29 12:41 27.83967 -84.99296 38106 ft 377 kts 288°
2026-04-29 12:41 27.84947 -85.05118 38105 ft 377 kts 287°
2026-04-29 12:42 27.85920 -85.10937 38099 ft 377 kts 287°
2026-04-29 12:42 27.86728 -85.15768 38097 ft 377 kts 287°
2026-04-29 12:43 27.87708 -85.21584 38098 ft 377 kts 287°
2026-04-29 12:43 27.89141 -85.28221 38097 ft 371 kts 294°
2026-04-29 12:44 27.90541 -85.32837 38097 ft 371 kts 294°
2026-04-29 12:44 27.92221 -85.38357 38100 ft 371 kts 294°
2026-04-29 12:45 27.93893 -85.43871 38104 ft 371 kts 294°
2026-04-29 12:45 27.95561 -85.49396 38104 ft 371 kts 294°
2026-04-29 12:46 27.97233 -85.54920 38100 ft 371 kts 294°
2026-04-29 12:46 27.98895 -85.60436 38098 ft 370 kts 294°
2026-04-29 12:47 28.00536 -85.65921 38099 ft 370 kts 294°
2026-04-29 12:47 28.02190 -85.71443 38102 ft 370 kts 294°
2026-04-29 12:48 28.03842 -85.76954 38102 ft 370 kts 294°
2026-04-29 12:48 28.05491 -85.82477 38102 ft 370 kts 294°
2026-04-29 12:49 28.07137 -85.88005 38095 ft 370 kts 294°
2026-04-29 12:49 28.08788 -85.93535 38097 ft 370 kts 294°
2026-04-29 12:50 28.10429 -85.99052 38101 ft 370 kts 294°
2026-04-29 12:50 28.12069 -86.04580 38095 ft 370 kts 294°
2026-04-29 12:51 28.13705 -86.10094 38107 ft 369 kts 293°
2026-04-29 12:51 28.15340 -86.15621 38098 ft 369 kts 293°
2026-04-29 12:52 28.16982 -86.21170 38782 ft 381 kts 288°
2026-04-29 12:52 28.18695 -86.26977 38753 ft 396 kts 288°
2026-04-29 12:53 28.20463 -86.32978 38758 ft 411 kts 288°
2026-04-29 12:53 28.22323 -86.39283 38767 ft 426 kts 288°
2026-04-29 12:54 28.24218 -86.45720 38777 ft 438 kts 288°
2026-04-29 12:54 28.26143 -86.52295 38734 ft 439 kts 288°
2026-04-29 12:54 28.27101 -86.55578 38259 ft 439 kts 288°
2026-04-29 12:55 28.28059 -86.58861 38006 ft 436 kts 288°
2026-04-29 12:55 28.29968 -86.65409 38008 ft 439 kts 288°
2026-04-29 12:56 28.31887 -86.72002 38009 ft 440 kts 288°
2026-04-29 12:56 28.33820 -86.78589 38009 ft 440 kts 288°
2026-04-29 12:57 28.35760 -86.85193 38009 ft 440 kts 288°
2026-04-29 12:57 28.37688 -86.91802 38012 ft 441 kts 288°
2026-04-29 12:58 28.39609 -86.98413 38015 ft 441 kts 288°
2026-04-29 12:58 28.41519 -87.04983 38019 ft 441 kts 288°
2026-04-29 12:59 28.43451 -87.11600 38020 ft 441 kts 288°
2026-04-29 12:59 28.45374 -87.18226 38022 ft 441 kts 288°
2026-04-29 13:00 28.47285 -87.24852 38024 ft 441 kts 288°
2026-04-29 13:00 28.49192 -87.31488 38022 ft 441 kts 288°
2026-04-29 13:01 28.51098 -87.38118 38027 ft 441 kts 288°
2026-04-29 13:01 28.53010 -87.44761 38023 ft 441 kts 288°
2026-04-29 13:02 28.54897 -87.51339 38023 ft 441 kts 288°
2026-04-29 13:02 28.56798 -87.57985 38023 ft 441 kts 288°
2026-04-29 13:02 28.57709 -87.61208 37910 ft 408 kts 292°
2026-04-29 13:03 28.58533 -87.64174 38877 ft 382 kts 292°
2026-04-29 13:03 28.59326 -87.67006 38857 ft 371 kts 292°
2026-04-29 13:03 28.60120 -87.69779 38471 ft 367 kts 292°
2026-04-29 13:03 28.60915 -87.72529 38097 ft 365 kts 292°
2026-04-29 13:04 28.61705 -87.75265 38061 ft 363 kts 292°
2026-04-29 13:04 28.63293 -87.80787 38078 ft 369 kts 292°
2026-04-29 13:05 28.64879 -87.86361 38082 ft 370 kts 292°
2026-04-29 13:05 28.66455 -87.91939 38083 ft 371 kts 292°
2026-04-29 13:06 28.68029 -87.97539 38071 ft 371 kts 292°
2026-04-29 13:06 28.69607 -88.03123 38075 ft 371 kts 292°
2026-04-29 13:07 28.71186 -88.08730 38073 ft 371 kts 292°
2026-04-29 13:07 28.72759 -88.14320 38077 ft 371 kts 292°
2026-04-29 13:08 28.74319 -88.19883 38088 ft 371 kts 292°
2026-04-29 13:08 28.75886 -88.25479 38086 ft 371 kts 292°
2026-04-29 13:09 28.77455 -88.31080 38074 ft 371 kts 292°
2026-04-29 13:09 28.79015 -88.36686 38081 ft 371 kts 292°
2026-04-29 13:10 28.80567 -88.42292 38089 ft 370 kts 292°
2026-04-29 13:10 28.82123 -88.47879 38094 ft 370 kts 292°
2026-04-29 13:11 28.83683 -88.53483 38081 ft 370 kts 292°
2026-04-29 13:11 28.85239 -88.59066 38086 ft 370 kts 292°
2026-04-29 13:12 28.86786 -88.64662 38089 ft 370 kts 292°
2026-04-29 13:12 28.88321 -88.70255 38074 ft 370 kts 291°
2026-04-29 13:13 28.89645 -88.75939 38076 ft 371 kts 288°
2026-04-29 13:13 28.90808 -88.81682 38086 ft 371 kts 288°
2026-04-29 13:14 28.91980 -88.87413 38080 ft 371 kts 288°
2026-04-29 13:14 28.93181 -88.93102 38069 ft 370 kts 289°
2026-04-29 13:15 28.94393 -88.98816 38073 ft 370 kts 288°
2026-04-29 13:15 28.95605 -89.04525 38072 ft 370 kts 289°
2026-04-29 13:16 28.96813 -89.10224 38072 ft 369 kts 289°
2026-04-29 13:16 28.98017 -89.15932 38079 ft 369 kts 288°
2026-04-29 13:17 28.99215 -89.21631 38078 ft 369 kts 288°
2026-04-29 13:17 29.00408 -89.27324 38079 ft 369 kts 288°
2026-04-29 13:18 29.01601 -89.33031 38069 ft 368 kts 288°
2026-04-29 13:18 29.02789 -89.38722 38080 ft 368 kts 288°
2026-04-29 13:19 29.03978 -89.44406 38075 ft 368 kts 288°
2026-04-29 13:19 29.05157 -89.50092 38077 ft 368 kts 288°
2026-04-29 13:20 29.06337 -89.55783 38074 ft 367 kts 288°
2026-04-29 13:20 29.07515 -89.61466 38067 ft 367 kts 288°
2026-04-29 13:21 29.08680 -89.67110 38070 ft 367 kts 288°
2026-04-29 13:21 29.09849 -89.72785 38070 ft 367 kts 288°
2026-04-29 13:22 29.11017 -89.78462 38067 ft 367 kts 288°
2026-04-29 13:22 29.12179 -89.84139 38064 ft 367 kts 288°
2026-04-29 13:23 29.13343 -89.89819 38065 ft 366 kts 288°
2026-04-29 13:23 29.14499 -89.95500 38064 ft 366 kts 288°
2026-04-29 13:24 29.15651 -90.01173 38063 ft 366 kts 288°
2026-04-29 13:24 29.16805 -90.06848 38067 ft 366 kts 288°
2026-04-29 13:25 29.17571 -90.12623 38071 ft 373 kts 277°
2026-04-29 13:25 29.17702 -90.21499 38069 ft 373 kts 277°
2026-04-29 13:26 29.17787 -90.27438 38074 ft 373 kts 277°
2026-04-29 13:26 29.17876 -90.33383 38069 ft 373 kts 277°
2026-04-29 13:27 29.17966 -90.39318 38066 ft 373 kts 277°
2026-04-29 13:27 29.18053 -90.45254 38061 ft 373 kts 277°
2026-04-29 13:28 29.18132 -90.51196 38059 ft 373 kts 277°
2026-04-29 13:28 29.18210 -90.57142 38056 ft 373 kts 277°
2026-04-29 13:29 29.18285 -90.63082 38057 ft 373 kts 277°
2026-04-29 13:29 29.18357 -90.69026 38056 ft 373 kts 277°
2026-04-29 13:30 29.18430 -90.74971 38056 ft 373 kts 277°
2026-04-29 13:30 29.18499 -90.80911 38056 ft 373 kts 277°
2026-04-29 13:31 29.18560 -90.86854 38055 ft 373 kts 277°
2026-04-29 13:31 29.18610 -90.91790 38059 ft 373 kts 277°
2026-04-29 13:32 29.18667 -90.97730 38060 ft 373 kts 277°
2026-04-29 13:32 29.18725 -91.03670 38061 ft 373 kts 277°
2026-04-29 13:33 29.18791 -91.09617 38059 ft 373 kts 277°
2026-04-29 13:33 29.18849 -91.15552 38058 ft 373 kts 277°
2026-04-29 13:34 29.18891 -91.21481 38058 ft 373 kts 276°
2026-04-29 13:34 29.18931 -91.27416 38059 ft 373 kts 277°
2026-04-29 13:35 29.18976 -91.33346 38059 ft 373 kts 277°
2026-04-29 13:35 29.19020 -91.39275 38057 ft 373 kts 276°
2026-04-29 13:36 29.19059 -91.45211 38057 ft 372 kts 276°
2026-04-29 13:36 29.19095 -91.51091 38053 ft 372 kts 276°
2026-04-29 13:37 29.19131 -91.57012 38048 ft 372 kts 276°
2026-04-29 13:37 29.19159 -91.62944 38053 ft 372 kts 276°
2026-04-29 13:38 29.19187 -91.68869 38054 ft 372 kts 276°
2026-04-29 13:38 29.19213 -91.74785 38051 ft 372 kts 276°
2026-04-29 13:39 29.19235 -91.80706 38054 ft 372 kts 276°
2026-04-29 13:39 29.19256 -91.86615 38051 ft 372 kts 276°
2026-04-29 13:40 29.19272 -91.92536 38050 ft 371 kts 276°
2026-04-29 13:40 29.19285 -91.98440 38052 ft 371 kts 276°
2026-04-29 13:41 29.19301 -92.04316 38047 ft 371 kts 276°
2026-04-29 13:41 29.19316 -92.10217 38052 ft 371 kts 276°
2026-04-29 13:42 29.19326 -92.16122 38049 ft 371 kts 276°
2026-04-29 13:42 29.19326 -92.22018 38047 ft 371 kts 276°
2026-04-29 13:43 29.19327 -92.27906 38044 ft 370 kts 276°
2026-04-29 13:43 29.19334 -92.33804 38044 ft 370 kts 276°
2026-04-29 13:44 29.19332 -92.39700 38043 ft 370 kts 276°
2026-04-29 13:44 29.19329 -92.45578 38044 ft 370 kts 276°
2026-04-29 13:45 29.19320 -92.51467 38042 ft 370 kts 276°
2026-04-29 13:45 29.19305 -92.57356 38042 ft 370 kts 276°
2026-04-29 13:46 29.19288 -92.63246 38040 ft 370 kts 276°
2026-04-29 13:46 29.19272 -92.69131 38043 ft 369 kts 276°
2026-04-29 13:47 29.19256 -92.74999 38044 ft 369 kts 275°
2026-04-29 13:47 29.19240 -92.80884 38040 ft 369 kts 276°
2026-04-29 13:48 29.19220 -92.86712 38037 ft 369 kts 275°
2026-04-29 13:48 29.19192 -92.92587 38036 ft 369 kts 275°
2026-04-29 13:49 29.19161 -92.98457 38037 ft 369 kts 275°
2026-04-29 13:49 29.19127 -93.04319 38031 ft 369 kts 275°
2026-04-29 13:50 29.19099 -93.10187 38039 ft 368 kts 275°
2026-04-29 13:50 29.19065 -93.16045 38033 ft 368 kts 275°
2026-04-29 13:51 29.19027 -93.21910 38031 ft 368 kts 275°
2026-04-29 13:51 29.18984 -93.27770 38032 ft 368 kts 275°
2026-04-29 13:52 29.18942 -93.33626 38029 ft 368 kts 275°
2026-04-29 13:52 29.18898 -93.39489 38031 ft 368 kts 275°
2026-04-29 13:53 29.18846 -93.45303 38033 ft 368 kts 275°
2026-04-29 13:53 29.18791 -93.51161 38034 ft 368 kts 275°
2026-04-29 13:54 29.18736 -93.57015 38030 ft 367 kts 275°
2026-04-29 13:54 29.19058 -93.62812 38026 ft 364 kts 279°
2026-04-29 13:55 29.19451 -93.68588 38028 ft 364 kts 279°
2026-04-29 13:55 29.19839 -93.74373 38027 ft 364 kts 279°
2026-04-29 13:56 29.20228 -93.80145 38026 ft 364 kts 279°
2026-04-29 13:56 29.20611 -93.85885 38023 ft 364 kts 279°
2026-04-29 13:57 29.20990 -93.91656 38023 ft 364 kts 279°
2026-04-29 13:57 29.21369 -93.97420 38021 ft 363 kts 279°
2026-04-29 13:58 29.21750 -94.03198 38019 ft 363 kts 278°
2026-04-29 13:58 29.22125 -94.08962 38015 ft 363 kts 278°
2026-04-29 13:59 29.22498 -94.14728 38012 ft 363 kts 278°
2026-04-29 13:59 29.22863 -94.20499 38011 ft 363 kts 278°
2026-04-29 14:00 29.23227 -94.26255 38012 ft 363 kts 278°
2026-04-29 14:00 29.23593 -94.32023 38010 ft 363 kts 278°
2026-04-29 14:01 29.23960 -94.37777 38009 ft 362 kts 278°
2026-04-29 14:01 29.24321 -94.43541 38006 ft 362 kts 278°
2026-04-29 14:02 29.24676 -94.49251 38008 ft 362 kts 278°
2026-04-29 14:02 29.25032 -94.54995 38009 ft 361 kts 278°
2026-04-29 14:03 29.25381 -94.60736 38008 ft 361 kts 278°
2026-04-29 14:03 29.25724 -94.66474 38011 ft 361 kts 278°
2026-04-29 14:04 29.26069 -94.72204 38010 ft 360 kts 278°
2026-04-29 14:04 29.26411 -94.77926 38015 ft 360 kts 278°
2026-04-29 14:05 29.26748 -94.83644 38020 ft 360 kts 278°
2026-04-29 14:05 29.27407 -94.89290 38016 ft 356 kts 285°
2026-04-29 14:06 29.28473 -94.94826 38016 ft 356 kts 285°
2026-04-29 14:06 29.29534 -95.00372 38012 ft 356 kts 284°